EW3393 Weather Reports


Display with metric or nautical units.
time (UTC)temp
F
wind
direction
speed
MPH
gust
MPH
rain 1hr
in
rain 24hr
in
rain mn
in
humidity
%
barometer
mb
20260510115814 76 312 11.0 15.0 0.00 0.00 0.00 23 1008.0
20260510115345 76 292 12.0 15.0 0.00 0.00 0.00 24 1007.9
20260510114816 76 311 10.0 15.0 0.00 0.00 0.00 24 1007.9
20260510114327 75 314 11.0 15.0 0.00 0.00 0.00 25 1007.9
20260510113819 75 315 10.0 15.0 0.00 0.00 0.00 25 1007.9
20260510113330 75 323 12.0 15.0 0.00 0.00 0.00 25 1008.0
20260510112822 75 319 11.0 15.0 0.00 0.00 0.00 25 1008.0
20260510112313 75 301 11.0 15.0 0.00 0.00 0.00 26 1007.9
20260510111826 74 309 10.0 14.0 0.00 0.00 0.00 26 1008.0
20260510111321 75 313 10.0 14.0 0.00 0.00 0.00 26 1007.9
20260510110813 75 301 11.0 16.0 0.00 0.00 0.00 27 1007.9
20260510110324 75 296 12.0 16.0 0.00 0.00 0.00 27 1008.0
20260510105853 75 278 11.0 13.0 0.00 0.00 0.00 27 1008.0
20260510105323 75 286 9.0 14.0 0.00 0.00 0.00 27 1008.1
20260510104815 76 321 12.0 15.0 0.00 0.00 0.00 27 1008.0
20260510104326 76 297 12.0 16.0 0.00 0.00 0.00 27 1008.0
20260510103818 75 280 13.0 15.0 0.00 0.00 0.00 27 1007.9
20260510103313 75 282 10.0 14.0 0.00 0.00 0.00 27 1007.9
20260510102826 75 304 10.0 15.0 0.00 0.00 0.00 26 1007.9
20260510102317 75 290 12.0 15.0 0.00 0.00 0.00 26 1007.9
20260510101830 75 302 11.0 13.0 0.00 0.00 0.00 26 1007.9
20260510101322 75 303 10.0 14.0 0.00 0.00 0.00 26 1007.9
20260510100814 75 308 11.0 14.0 0.00 0.00 0.00 26 1007.9
20260510100324 75 311 10.0 13.0 0.00 0.00 0.00 26 1008.0
20260510095815 76 303 10.0 13.0 0.00 0.00 0.00 26 1008.0
20260510095327 76 267 11.0 14.0 0.00 0.00 0.00 26 1008.0
20260510094823 76 309 11.0 14.0 0.00 0.00 0.00 27 1008.0
20260510094313 76 306 10.0 14.0 0.00 0.00 0.00 27 1008.0
20260510093827 76 300 11.0 14.0 0.00 0.00 0.00 27 1008.0
20260510093318 76 313 11.0 14.0 0.00 0.00 0.00 27 1008.0
20260510092831 76 309 11.0 14.0 0.00 0.00 0.00 27 1008.0
20260510092322 77 302 11.0 15.0 0.00 0.00 0.00 27 1007.9
20260510091815 77 302 12.0 15.0 0.00 0.00 0.00 27 1007.9
20260510091326 76 308 11.0 13.0 0.00 0.00 0.00 27 1007.9
20260510090823 77 317 10.0 13.0 0.00 0.00 0.00 27 1007.9
20260510090314 77 292 11.0 14.0 0.00 0.00 0.00 27 1008.0
20260510085823 76 310 11.0 14.0 0.00 0.00 0.00 27 1008.0
20260510085314 76 293 9.0 12.0 0.00 0.00 0.00 27 1008.0
20260510084828 76 287 9.0 14.0 0.00 0.00 0.00 27 1008.0
20260510084319 76 317 10.0 14.0 0.00 0.00 0.00 28 1008.0
20260510083832 75 301 10.0 12.0 0.00 0.00 0.00 28 1008.1
20260510083324 76 286 8.0 10.0 0.00 0.00 0.00 30 1008.1
20260510082838 76 295 8.0 10.0 0.00 0.00 0.00 29 1008.1
20260510082348 77 289 7.0 12.0 0.00 0.00 0.00 29 1008.2
20260510081823 77 279 8.0 14.0 0.00 0.00 0.00 29 1008.2
20260510081313 77 300 10.0 16.0 0.00 0.00 0.00 29 1008.2
20260510080846 77 320 13.0 16.0 0.00 0.00 0.00 29 1008.2
20260510080337 78 306 12.0 14.0 0.00 0.00 0.00 29 1008.3
20260510075825 78 304 12.0 15.0 0.00 0.00 0.00 30 1008.4
20260510075316 78 308 12.0 16.0 0.00 0.00 0.00 30 1008.3
20260510074849 78 321 11.0 16.0 0.00 0.00 0.00 30 1008.4
20260510074318 78 304 11.0 16.0 0.00 0.00 0.00 30 1008.4
20260510073851 78 340 11.0 16.0 0.00 0.00 0.00 31 1008.5
20260510073320 78 327 10.0 13.0 0.00 0.00 0.00 31 1008.5
20260510072853 78 292 10.0 13.0 0.00 0.00 0.00 31 1008.5
20260510072326 78 333 10.0 15.0 0.00 0.00 0.00 32 1008.5
20260510071840 78 308 11.0 20.0 0.00 0.00 0.00 33 1008.5
20260510071331 78 321 13.0 20.0 0.00 0.00 0.00 33 1008.5
20260510070824 79 315 11.0 18.0 0.00 0.00 0.00 32 1008.6
20260510070315 79 324 13.0 21.0 0.00 0.00 0.00 33 1008.5
20260510065825 79 283 15.0 21.0 0.00 0.00 0.00 33 1008.5
20260510065317 79 302 13.0 20.0 0.00 0.00 0.00 33 1008.6
20260510064830 79 290 14.0 20.0 0.00 0.00 0.00 33 1008.5
20260510064320 79 298 13.0 24.0 0.00 0.00 0.00 33 1008.4
20260510063818 79 289 17.0 24.0 0.00 0.00 0.00 34 1008.3
20260510063329 79 284 16.0 23.0 0.00 0.00 0.00 34 1008.3
20260510062821 79 291 15.0 22.0 0.00 0.00 0.00 34 1008.2
20260510062329 79 302 17.0 26.0 0.00 0.00 0.00 35 1008.2
20260510061842 79 283 19.0 26.0 0.00 0.00 0.00 35 1008.2
20260510061332 79 277 20.0 27.0 0.00 0.00 0.00 35 1008.1
20260510060824 79 277 18.0 27.0 0.00 0.00 0.00 35 1008.1
20260510060314 79 277 20.0 27.0 0.00 0.00 0.00 34 1008.2
20260510055823 79 269 17.0 27.0 0.00 0.00 0.00 34 1008.2
20260510055332 79 291 20.0 25.0 0.00 0.00 0.00 34 1008.2
20260510054828 79 265 17.0 22.0 0.00 0.00 0.00 34 1008.1
20260510054319 79 273 17.0 23.0 0.00 0.00 0.00 34 1008.1
20260510053832 79 290 15.0 23.0 0.00 0.00 0.00 35 1008.1
20260510053322 79 271 15.0 21.0 0.00 0.00 0.00 34 1008.2
20260510052815 79 281 14.0 21.0 0.00 0.00 0.00 35 1008.1
20260510052325 80 300 14.0 21.0 0.00 0.00 0.00 35 1008.2
20260510051817 80 289 15.0 24.0 0.00 0.00 0.00 35 1008.1
20260510051328 80 306 14.0 24.0 0.00 0.00 0.00 35 1008.2
20260510050822 80 289 16.0 24.0 0.00 0.00 0.00 35 1008.1
20260510050318 80 294 15.0 21.0 0.00 0.00 0.00 34 1008.1
20260510045827 80 264 15.0 25.0 0.00 0.00 0.00 35 1008.1
20260510045319 80 273 18.0 26.0 0.00 0.00 0.00 34 1008.1
20260510044830 80 289 18.0 27.0 0.00 0.00 0.00 34 1008.1
20260510044320 80 264 18.0 27.0 0.00 0.00 0.00 34 1008.1
20260510043854 80 259 16.0 29.0 0.00 0.00 0.00 34 1008.0
20260510043324 81 279 21.0 29.0 0.00 0.00 0.00 34 1008.0
20260510042816 81 269 21.0 31.0 0.00 0.00 0.00 34 1008.0
20260510042328 81 292 23.0 31.0 0.00 0.00 0.00 33 1007.9
20260510041825 81 263 24.0 32.0 0.00 0.00 0.00 33 1007.8
20260510041316 82 273 25.0 32.0 0.00 0.00 0.00 33 1007.7
20260510040827 82 273 24.0 29.0 0.00 0.00 0.00 33 1007.7
20260510040317 82 278 20.0 29.0 0.00 0.00 0.00 32 1007.8
20260510035827 82 294 21.0 29.0 0.00 0.00 0.00 32 1007.7
20260510035319 82 298 24.0 30.0 0.00 0.00 0.00 32 1007.6
20260510034831 83 296 22.0 30.0 0.00 0.00 0.00 32 1007.6
20260510034322 83 280 23.0 32.0 0.00 0.00 0.00 32 1007.6
20260510033815 83 284 21.0 32.0 0.00 0.00 0.00 31 1007.5
20260510033326 83 285 22.0 32.0 0.00 0.00 0.00 31 1007.5
20260510032823 83 274 22.0 28.0 0.00 0.00 0.00 31 1007.3
20260510032315 84 286 21.0 28.0 0.00 0.00 0.00 31 1007.3
20260510031848 84 294 19.0 30.0 0.00 0.00 0.00 30 1007.2
20260510031318 84 280 22.0 30.0 0.00 0.00 0.00 30 1007.3
20260510030832 85 284 22.0 30.0 0.00 0.00 0.00 30 1007.1
20260510030322 85 272 19.0 30.0 0.00 0.00 0.00 29 1007.0
20260510025832 85 286 18.0 31.0 0.00 0.00 0.00 29 1007.0
20260510025324 86 280 23.0 30.0 0.00 0.00 0.00 29 1006.9
20260510024820 86 284 23.0 30.0 0.00 0.00 0.00 28 1006.8
20260510024330 87 275 21.0 31.0 0.00 0.00 0.00 28 1006.8
20260510023843 87 281 23.0 31.0 0.00 0.00 0.00 27 1006.7
20260510023313 88 284 22.0 30.0 0.00 0.00 0.00 27 1006.7
20260510022826 88 263 21.0 30.0 0.00 0.00 0.00 26 1006.6
20260510022317 89 296 19.0 29.0 0.00 0.00 0.00 26 1006.5
20260510021831 89 290 21.0 29.0 0.00 0.00 0.00 25 1006.5
20260510021322 89 255 20.0 32.0 0.00 0.00 0.00 25 1006.5
20260510020834 90 303 19.0 32.0 0.00 0.00 0.00 24 1006.4
20260510020325 90 278 18.0 28.0 0.00 0.00 0.00 24 1006.4
20260510015817 91 302 20.0 34.0 0.00 0.00 0.00 23 1006.3
20260510015328 91 306 23.0 34.0 0.00 0.00 0.00 23 1006.3
20260510014820 92 307 22.0 28.0 0.00 0.00 0.00 22 1006.3
20260510014352 92 314 18.0 27.0 0.00 0.00 0.00 22 1006.3
20260510013821 93 321 20.0 28.0 0.00 0.00 0.00 21 1006.3
20260510013352 93 319 21.0 28.0 0.00 0.00 0.00 20 1006.2
20260510012823 93 279 20.0 30.0 0.00 0.00 0.00 20 1006.1
20260510012333 94 272 19.0 26.0 0.00 0.00 0.00 19 1006.1
20260510011846 94 270 21.0 27.0 0.00 0.00 0.00 19 1006.1
20260510011316 94 289 21.0 28.0 0.00 0.00 0.00 18 1006.1
20260510010849 95 284 20.0 28.0 0.00 0.00 0.00 18 1006.1
20260510010318 95 279 19.0 26.0 0.00 0.00 0.00 18 1006.0
20260510005827 95 277 19.0 28.0 0.00 0.00 0.00 17 1006.1
20260510005321 96 268 19.0 31.0 0.00 0.00 0.00 17 1006.1
20260510004834 96 268 22.0 31.0 0.00 0.00 0.00 17 1006.0
20260510004344 96 269 22.0 29.0 0.00 0.00 0.00 17 1005.9
20260510003816 97 250 19.0 25.0 0.00 0.00 0.00 17 1005.9
20260510003327 97 271 18.0 28.0 0.00 0.00 0.00 17 1006.0
20260510002839 97 254 23.0 28.0 0.00 0.00 0.00 17 1005.9
20260510002330 97 254 16.0 25.0 0.00 0.00 0.00 16 1006.0
20260510001841 98 264 19.0 26.0 0.00 0.00 0.00 15 1006.0
20260510001331 98 259 20.0 26.0 0.00 0.00 0.00 16 1006.0
20260510000822 98 269 17.0 27.0 0.00 0.00 0.00 14 1006.0
20260510000313 98 263 18.0 27.0 0.00 0.00 0.00 15 1006.0
20260509235827 98 250 15.0 23.0 0.00 0.00 0.00 15 1006.0
20260509235318 98 280 18.0 25.0 0.00 0.00 0.00 14 1006.1
20260509234831 99 259 17.0 26.0 0.00 0.00 0.00 14 1006.1
20260509234323 98 261 15.0 25.0 0.00 0.00 0.00 13 1006.1
20260509233818 98 250 20.0 25.0 0.00 0.00 0.00 14 1006.1
20260509233350 99 271 18.0 24.0 0.00 0.00 0.00 12 1006.2
20260509232821 99 273 13.0 23.0 0.00 0.00 0.00 11 1006.2
20260509232313 100 252 15.0 23.0 0.00 0.00 0.00 11 1006.2
20260509231827 100 264 12.0 18.0 0.00 0.00 0.00 10 1006.3
20260509231322 100 293 13.0 21.0 0.00 0.00 0.00 11 1006.4
20260509230835 99 220 13.0 21.0 0.00 0.00 0.00 10 1006.3
20260509230346 100 261 16.0 23.0 0.00 0.00 0.00 11 1006.4
20260509225814 100 234 16.0 23.0 0.00 0.00 0.00 10 1006.5
20260509225347 100 277 11.0 20.0 0.00 0.00 0.00 10 1006.5
20260509224820 99 254 13.0 24.0 0.00 0.00 0.00 11 1006.7
20260509224331 100 263 15.0 24.0 0.00 0.00 0.00 10 1006.7
20260509223824 100 284 17.0 23.0 0.00 0.00 0.00 10 1006.7
20260509223315 100 273 11.0 24.0 0.00 0.00 0.00 11 1006.7
20260509222829 100 283 17.0 24.0 0.00 0.00 0.00 11 1006.8
20260509222325 99 251 14.0 20.0 0.00 0.00 0.00 11 1006.8
20260509221818 100 240 14.0 20.0 0.00 0.00 0.00 11 1006.9
20260509221351 100 310 13.0 25.0 0.00 0.00 0.00 11 1007.0
20260509220824 100 248 11.0 20.0 0.00 0.00 0.00 11 1007.0
20260509220315 99 227 10.0 20.0 0.00 0.00 0.00 11 1007.2
20260509215826 100 255 14.0 19.0 0.00 0.00 0.00 11 1007.3
20260509215316 100 259 14.0 19.0 0.00 0.00 0.00 11 1007.3
20260509214829 100 180 7.0 13.0 0.00 0.00 0.00 11 1007.3
20260509214319 101 238 8.0 17.0 0.00 0.00 0.00 11 1007.4
20260509213817 100 205 9.0 17.0 0.00 0.00 0.00 11 1007.5
20260509213327 100 283 10.0 14.0 0.00 0.00 0.00 11 1007.5
20260509212821 100 223 5.0 16.0 0.00 0.00 0.00 11 1007.5
20260509212313 100 253 10.0 16.0 0.00 0.00 0.00 11 1007.6
20260509211826 99 276 3.0 11.0 0.00 0.00 0.00 11 1007.7
20260509211318 99 267 8.0 17.0 0.00 0.00 0.00 11 1007.8
20260509210831 100 291 13.0 17.0 0.00 0.00 0.00 11 1007.8
20260509210324 100 249 5.0 11.0 0.00 0.00 0.00 11 1007.9
20260509205814 100 259 6.0 9.0 0.00 0.00 0.00 11 1008.0
20260509205347 99 313 0.0 12.0 0.00 0.00 0.00 11 1008.1
20260509204824 99 282 5.0 9.0 0.00 0.00 0.00 11 1008.2
20260509204336 99 284 6.0 15.0 0.00 0.00 0.00 10 1008.2
20260509203849 99 238 11.0 15.0 0.00 0.00 0.00 11 1008.3
20260509203320 99 269 11.0 20.0 0.00 0.00 0.00 10 1008.3
20260509202813 99 215 10.0 20.0 0.00 0.00 0.00 11 1008.3
20260509202325 99 240 5.0 8.0 0.00 0.00 0.00 11 1008.4
20260509201837 98 292 1.0 10.0 0.00 0.00 0.00 11 1008.5
20260509201328 98 279 6.0 13.0 0.00 0.00 0.00 11 1008.5
20260509200820 98 259 6.0 13.0 0.00 0.00 0.00 11 1008.5
20260509200316 99 295 9.0 15.0 0.00 0.00 0.00 11 1008.6
20260509195825 99 179 9.0 15.0 0.00 0.00 0.00 11 1008.6
20260509195316 99 212 4.0 8.0 0.00 0.00 0.00 12 1008.7
20260509194829 98 167 5.0 9.0 0.00 0.00 0.00 11 1008.7
20260509194319 98 192 7.0 10.0 0.00 0.00 0.00 11 1008.8
20260509193831 97 180 8.0 14.0 0.00 0.00 0.00 11 1008.9
20260509193322 97 288 8.0 14.0 0.00 0.00 0.00 12 1008.9
20260509192813 96 225 6.0 11.0 0.00 0.00 0.00 12 1008.9
20260509192324 96 240 4.0 14.0 0.00 0.00 0.00 13 1008.9
20260509191820 96 257 8.0 13.0 0.00 0.00 0.00 13 1009.0
20260509191351 96 202 5.0 13.0 0.00 0.00 0.00 14 1009.2
20260509190822 96 284 10.0 13.0 0.00 0.00 0.00 14 1009.2
20260509190314 95 196 7.0 11.0 0.00 0.00 0.00 13 1009.3
20260509185822 95 164 6.0 15.0 0.00 0.00 0.00 13 1009.3
20260509185332 95 183 6.0 14.0 0.00 0.00 0.00 14 1009.3
20260509184824 95 265 5.0 11.0 0.00 0.00 0.00 14 1009.3
20260509184315 95 254 5.0 11.0 0.00 0.00 0.00 14 1009.3
20260509183827 94 246 6.0 10.0 0.00 0.00 0.00 13 1009.4
20260509183319 94 246 7.0 11.0 0.00 0.00 0.00 13 1009.5
20260509182814 94 256 3.0 13.0 0.00 0.00 0.00 13 1009.5
20260509182325 94 256 9.0 13.0 0.00 0.00 0.00 13 1009.6
20260509181817 93 261 6.0 14.0 0.00 0.00 0.00 13 1009.5
20260509181328 93 234 8.0 15.0 0.00 0.00 0.00 14 1009.6
20260509180820 93 303 9.0 15.0 0.00 0.00 0.00 15 1009.6
20260509180313 93 276 11.0 14.0 0.00 0.00 0.00 15 1009.7
20260509175822 93 282 10.0 14.0 0.00 0.00 0.00 14 1009.6
20260509175334 92 328 8.0 16.0 0.00 0.00 0.00 14 1009.6
20260509174827 92 268 10.0 17.0 0.00 0.00 0.00 15 1009.6
20260509174319 92 268 10.0 17.0 0.00 0.00 0.00 15 1009.6
20260509173816 92 248 9.0 14.0 0.00 0.00 0.00 16 1009.7
20260509173328 92 274 10.0 14.0 0.00 0.00 0.00 16 1009.7
20260509172820 91 254 10.0 14.0 0.00 0.00 0.00 17 1009.7
20260509172353 91 248 10.0 14.0 0.00 0.00 0.00 16 1009.7
20260509171825 91 257 11.0 17.0 0.00 0.00 0.00 17 1009.7
20260509171315 90 277 13.0 17.0 0.00 0.00 0.00 17 1009.7
20260509170828 90 269 12.0 15.0 0.00 0.00 0.00 17 1009.7
20260509170319 90 271 11.0 14.0 0.00 0.00 0.00 18 1009.7
20260509165831 89 266 12.0 17.0 0.00 0.00 0.00 17 1009.7
20260509165328 89 262 14.0 18.0 0.00 0.00 0.00 18 1009.6
20260509164821 89 265 14.0 19.0 0.00 0.00 0.00 18 1009.6
20260509164313 88 271 15.0 20.0 0.00 0.00 0.00 19 1009.6
20260509163825 88 244 15.0 23.0 0.00 0.00 0.00 19 1009.7
20260509163316 88 268 16.0 23.0 0.00 0.00 0.00 19 1009.6
20260509162830 87 261 16.0 21.0 0.00 0.00 0.00 21 1009.6
20260509162323 87 278 16.0 20.0 0.00 0.00 0.00 21 1009.6
20260509161817 87 246 15.0 20.0 0.00 0.00 0.00 21 1009.6
20260509161312 87 294 14.0 19.0 0.00 0.00 0.00 22 1009.6
20260509160823 86 254 14.0 19.0 0.00 0.00 0.00 23 1009.5
20260509160315 86 273 13.0 18.0 0.00 0.00 0.00 23 1009.5
20260509155824 85 286 13.0 19.0 0.00 0.00 0.00 24 1009.5
20260509155315 85 278 14.0 19.0 0.00 0.00 0.00 24 1009.5
20260509154848 85 279 14.0 20.0 0.00 0.00 0.00 25 1009.5
20260509154320 84 302 13.0 22.0 0.00 0.00 0.00 25 1009.4
20260509153834 84 297 16.0 22.0 0.00 0.00 0.00 25 1009.4
20260509153326 84 278 15.0 21.0 0.00 0.00 0.00 24 1009.4
20260509152823 83 265 17.0 21.0 0.00 0.00 0.00 25 1009.4
20260509152335 82 321 14.0 20.0 0.00 0.00 0.00 26 1009.4
20260509151826 82 297 14.0 19.0 0.00 0.00 0.00 27 1009.4
20260509151318 81 272 14.0 19.0 0.00 0.00 0.00 29 1009.4
20260509150832 81 272 14.0 20.0 0.00 0.00 0.00 29 1009.4
20260509150324 80 290 13.0 20.0 0.00 0.00 0.00 30 1009.4
20260509145813 80 266 14.0 19.0 0.00 0.00 0.00 29 1009.3
20260509145344 79 294 13.0 19.0 0.00 0.00 0.00 29 1009.4
20260509144835 79 277 15.0 19.0 0.00 0.00 0.00 29 1009.3
20260509144326 79 301 15.0 18.0 0.00 0.00 0.00 29 1009.2
20260509143815 79 277 14.0 19.0 0.00 0.00 0.00 30 1009.1
20260509143346 78 291 14.0 19.0 0.00 0.00 0.00 30 1009.1
20260509142821 78 275 12.0 16.0 0.00 0.00 0.00 30 1009.0
20260509142332 77 287 12.0 17.0 0.00 0.00 0.00 31 1009.0
20260509141845 77 300 12.0 16.0 0.00 0.00 0.00 32 1009.0
20260509141314 76 318 13.0 17.0 0.00 0.00 0.00 33 1008.9
20260509140846 76 290 12.0 16.0 0.00 0.00 0.00 33 1008.9
20260509140316 75 310 12.0 15.0 0.00 0.00 0.00 33 1008.9
20260509135826 75 283 13.0 15.0 0.00 0.00 0.00 33 1008.8
20260509135318 75 290 11.0 15.0 0.00 0.00 0.00 32 1008.8
20260509134851 75 284 13.0 16.0 0.00 0.00 0.00 32 1008.8
20260509134322 75 284 12.0 16.0 0.00 0.00 0.00 31 1008.8
20260509133818 75 273 11.0 15.0 0.00 0.00 0.00 30 1008.8
20260509133329 75 294 11.0 13.0 0.00 0.00 0.00 29 1008.7
20260509132821 75 301 11.0 13.0 0.00 0.00 0.00 29 1008.6
20260509132333 74 303 10.0 15.0 0.00 0.00 0.00 29 1008.6
20260509131846 73 300 12.0 15.0 0.00 0.00 0.00 30 1008.6
20260509131317 72 297 11.0 14.0 0.00 0.00 0.00 32 1008.5
20260509130831 72 292 10.0 13.0 0.00 0.00 0.00 32 1008.5
20260509130323 72 316 10.0 14.0 0.00 0.00 0.00 33 1008.4
20260509125833 72 317 11.0 14.0 0.00 0.00 0.00 33 1008.4
20260509125329 72 316 11.0 14.0 0.00 0.00 0.00 35 1008.4
20260509124822 72 306 10.0 17.0 0.00 0.00 0.00 35 1008.4
20260509124331 73 302 10.0 17.0 0.00 0.00 0.00 35 1008.4
20260509123824 73 302 13.0 16.0 0.00 0.00 0.00 36 1008.3
20260509123315 73 311 10.0 14.0 0.00 0.00 0.00 33 1008.2
20260509122827 73 320 10.0 16.0 0.00 0.00 0.00 33 1008.2
20260509122318 74 299 10.0 16.0 0.00 0.00 0.00 32 1008.3
20260509121831 73 290 13.0 17.0 0.00 0.00 0.00 33 1008.3
20260509121322 73 299 11.0 17.0 0.00 0.00 0.00 32 1008.3
20260509120817 73 297 11.0 16.0 0.00 0.00 0.00 32 1008.2
20260509120328 73 290 13.0 16.0 0.00 0.00 0.00 32 1008.2